Regional Weather Roundup
Issued by NWS San Angelo, TX

Home | Current Version | Previous Version | Text Only | Print | Product List | Glossary On
Versions: 1 2 3 4 5 6 7 8 9 10 11 12 13 14 15 16 17 18 19 20 21 22 23 24 25 26 27 28 29 30 31 32 33 34 35 36 37 38 39 40 41 42 43 44 45 46 47 48 49 50
000
ASUS44 KSJT 271910
RWRSJT
WEST CENTRAL TEXAS REGIONAL WEATHER ROUNDUP
NATIONAL WEATHER SERVICE SAN ANGELO TX
100 PM CST TUE JAN 27 2015

NOTE: "FAIR" INDICATES FEW OR NO CLOUDS BELOW 12,000 FEET WITH NO
SIGNIFICANT WEATHER AND/OR OBSTRUCTIONS TO VISIBILITY.

TXZ049-054-064>066-071>073-076>078-098-099-113-114-127-128-139-140-
154-155-168>170-272000
...LOCATIONS ACROSS WEST CENTRAL TEXAS...

CITY           SKY/WX    TMP DP  RH WIND       PRES   REMARKS
SAN ANGELO     SUNNY     71  38  29 CALM      30.20F
ABILENE        SUNNY     73  36  25 CALM      30.19F
DYESS AFB      SUNNY     72  42  33 N1        30.18F
JUNCTION       SUNNY     73  34  23 CALM      30.19F
SWEETWATER     SUNNY     71  38  29 SW3       30.23F
BROWNWOOD      SUNNY     70  41  35 SE3       30.19F
COLEMAN        CLEAR     74  45  34 E3        30.19F
SONORA         SUNNY     73  32  21 CALM      30.25F
OZONA          FAIR      72  32  23 W5        30.25F
BRADY          SUNNY     75  37  25 CALM      30.19F
$$

TEXAS PANHANDLE/OKLAHOMA PANHANDLE

CITY           SKY/WX    TMP DP  RH WIND       PRES   REMARKS
AMARILLO       MOSUNNY   71  28  20 SW13      30.21F
BORGER         SUNNY     69  32  25 SW10      30.18F
CANADIAN       SUNNY     75  33  21 W7        30.14F
DALHART        MOSUNNY   67  30  25 SW18      30.20F
DUMAS          CLEAR     64  38  38 SW15      30.20F
GUYMON         NOT AVBL
HEREFORD       PTCLDY    71  34  26 SW14      30.23F
PAMPA          CLEAR     72  28  19 SW14      30.19F
PERRYTON         N/A     74  32  21 SW13G21   30.14F
$$

SOUTHERN PANHANDLE/SOUTH PLAINS/ROLLING PLAINS

CITY           SKY/WX    TMP DP  RH WIND       PRES   REMARKS
LUBBOCK        PTSUNNY   68  33  27 SW6       30.22F
SNYDER         SUNNY    N/A N/A N/A S5        30.22F
CHILDRESS      SUNNY     75  35  23 S8        30.17F
SEMINOLE       CLEAR     69  32  25 SW3       30.25F
$$

PERMIAN BASIN

CITY           SKY/WX    TMP DP  RH WIND       PRES   REMARKS
MIDLAND        SUNNY     68  35  29 W5        30.24F
ODESSA         SUNNY     67  34  29 W6        30.25F
WINK           SUNNY     67  30  25 VRB3      30.23F
$$

FAR WEST/SOUTHWEST MOUNTAINS/TRANS PECOS

CITY           SKY/WX    TMP DP  RH WIND       PRES   REMARKS
ALPINE         CLEAR     67  44  43 SW8       30.34F
DRYDEN           N/A     72  31  22 SW5       30.22F
EL PASO        MOSUNNY   62  30  29 VRB3      30.29F
FORT STOCKTON  SUNNY     66  37  34 W7        30.26F
GUADALUPE PASS   N/A     59  28  30 SW14G22   30.33
MARFA          SUNNY     64  45  48 S8        30.33F
PECOS          CLEAR     66  35  31 CALM      30.25F
$$

DALLAS/FORT WORTH METROPLEX

CITY           SKY/WX    TMP DP  RH WIND       PRES   REMARKS
DFW AIRPORT    MOSUNNY   72  38  29 CALM      30.15F
FTW MEACHAM    SUNNY     75  40  28 SE3       30.15F
DAL-EXECUTIVE  SUNNY     76  37  24 CALM      30.14F
GRAND PRAIRIE  SUNNY     73  43  33 CALM      30.17F
ADDISON        SUNNY     73  37  27 CALM      30.17F
MESQUITE       CLEAR     72  37  28 CALM      30.16F
LANCASTER      CLEAR     71  40  31 CALM      30.17F
$$

NORTH CENTRAL TEXAS

CITY           SKY/WX    TMP DP  RH WIND       PRES   REMARKS
SHRMAN/DENISON CLEAR     75  44  33 S3        30.16F
GAINESVILLE    SUNNY     73  38  28 SE5       30.16F
BRIDGEPORT     CLEAR     77  43  29 CALM      30.17F
DENTON         SUNNY     74  38  27 SE3       30.15F
WAXAHACHIE     CLEAR     75  42  30 CALM      30.17F
GRANBURY       CLEAR     74  37  26 CALM      30.17F
$$

WESTERN NORTH TEXAS

CITY           SKY/WX    TMP DP  RH WIND       PRES   REMARKS
WICHITA FALLS  SUNNY     71  40  32 VRB7      30.14F
VERNON         CLEAR     74  28  18 S3        30.16F
BRECKENRIDGE   CLEAR     73  38  27 W3        30.18F HAZE
COMANCHE       SUNNY     76  41  28 SE3       30.19F
$$

CENTRAL AND SOUTH CENTRAL TEXAS

CITY           SKY/WX    TMP DP  RH WIND       PRES   REMARKS
AUSTIN/BERGSTM MOSUNNY   75  43  31 N7        30.16F
WACO           SUNNY     74  41  30 CALM      30.16F
HILLSBORO      CLEAR     75  41  29 CALM      30.15F
TEMPLE         SUNNY     75  43  31 NE3       30.16F
KILLEEN-GRAY   SUNNY     74  36  25 VRB2      30.17F
FORT HOOD      SUNNY     75  37  25 MISG      30.16F
GEORGETOWN     SUNNY     75  41  29 NE3       30.16F
LAGO VISTA     FAIR      75  40  29 CALM      30.18F
SAN MARCOS     SUNNY     79  41  25 CALM      30.17F
NEW BRAUNFELS  SUNNY     77  39  25 CALM      30.16F
RANDOLPH AFB   SUNNY     76  39  26 CALM      30.17F
SAN ANTONIO    MOSUNNY   77  38  24 CALM      30.18F
STINSON        SUNNY     77  38  24 SW6       30.16F
PLEASANTON     NOT AVBL
LA GRANGE      SUNNY     74  46  35 N3        30.14F
GIDDINGS       CLEAR     73  41  31 NW5       30.19F
$$

EAST TEXAS

CITY           SKY/WX    TMP DP  RH WIND       PRES   REMARKS
PARIS          SUNNY     72  34  25 CALM      30.15F
CLARKSVILLE    NOT AVBL
TYLER          SUNNY     74  39  28 W3        30.14F
LONGVIEW       SUNNY     73  41  31 CALM      30.13F
PALESTINE      CLEAR     77  39  25 CALM      30.15F
NACOGDOCHES    SUNNY     73  43  33 E6        30.14F
$$

TEXAS HILL COUNTRY AND EDWARDS PLATEAU

CITY           SKY/WX    TMP DP  RH WIND       PRES   REMARKS
LLANO          CLEAR     73  43  33 CALM      30.21F
HORSESHOE BAY  FAIR      72  38  29 CALM      30.19F
KERRVILLE      SUNNY     74  33  22 CALM      30.20F
FREDERICKSBRG  SUNNY     74  32  21 CALM      30.19F
ROCKSPRINGS    NOT AVBL
HONDO          SUNNY     76  35  22 W5        30.20F
UVALDE         CLEAR     74  35  24 CALM      30.20F
DEL RIO        SUNNY     72  41  32 W6        30.20F
$$

SOUTHEAST TEXAS

CITY           SKY/WX    TMP DP  RH WIND       PRES   REMARKS
COLLEGE STN    SUNNY     73  42  32 CALM      30.15F
CALDWELL       CLEAR     73  37  27 NW3       30.18F
CROCKETT       CLEAR     79  46  31 NE7       30.16F
BRENHAM        SUNNY     74  43  33 NW5       30.15F
HUNTSVILLE     SUNNY     74  43  32 VRB3      30.13F
CONROE         SUNNY     75  44  33 VRB3      30.13F
HOUSTON BUSH   SUNNY     74  43  32 NW3       30.13F
HOUSTON HOBBY  SUNNY     73  40  30 VRB5      30.12F
PERLAND        SUNNY     74  41  30 W7        30.14F
WHARTON        CLEAR     74  44  34 W10       30.15F
$$

THE UPPER TEXAS COAST

CITY           SKY/WX    TMP DP  RH WIND       PRES   REMARKS
ORANGE         CLEAR     74  44  34 E3        30.13F
PORT ARTHUR    SUNNY     76  43  30 MISG      30.12F
GALVESTON      SUNNY     72  44  36 W6        30.13F
ANGLETON       SUNNY     74  44  34 VRB6      30.13F
BAY CITY       CLEAR     75  44  33 W10       30.14F
$$

TEXAS COASTAL BEND, RIO GRANDE PLAINS DEEP SOUTH TEXAS

CITY           SKY/WX    TMP DP  RH WIND       PRES   REMARKS
VICTORIA       SUNNY     79  41  25 W13       30.16F
BEEVILLE       FAIR      75  39  27 W10       30.19F
ROCKPORT       SUNNY     76  38  25 W9        30.18F
PORT ARANSAS   CLEAR     72  42  32 W6        30.18F
PORT LAVACA    CLEAR     76  45  33 W13       30.16F
CORPUS CHRISTI SUNNY     78  39  24 W12       30.18F
KINGSVILLE NAS MOSUNNY   80  41  24 W7        30.18F
COTULLA        SUNNY     77  36  22 CALM      30.18F
LAREDO         SUNNY     75  41  29 S6        30.22F
BROWNSVILLE    SUNNY     77  41  27 VRB7      30.21F
PORT ISABEL    SUNNY     78  40  25 VRB6      30.20F
HEBBRONVILLE   CLEAR     77  35  22 SW6       30.20F
MCALLEN        SUNNY     78  40  25 S7        30.20F
WESLACO        SUNNY     78  41  27 SW6       30.20F
FALFURRIAS     CLEAR     80  28  15 W6        30.19F
EDINBURG       CLEAR     80  30  15 SW7       30.20F
$$



USA.gov is the U.S. government's official web portal to all federal, state and local government web resources and services.